This demonstration page uses our WeatherBlox Daily Observations layout. Learn more.

Left ArrowRight Arrow

Hourly Observations for July 12, 2022

Temp ( °F °C ) Dew Point ( °F °C ) Humidity (%) Winds ( mph kmh ) Pressure ( in mb ) Visibility ( mi km ) Precip ( " mm )
12:52 am 00:52 Clear 68 20 63 17.2 84 84 N 3 6 30.01 1016 10 16 0.00 0.00
1:52 am 01:52 Clear 69 20.6 59 15 70 70 Calm 30.01 1016 10 16 0.00 0.00
2:52 am 02:52 Clear 67 19.4 59 15 76 76 WSW 3 6 30.02 1017 10 16 0.00 0.00
3:52 am 03:52 Clear 66 18.9 58 14.4 75 75 WNW 3 6 30.01 1016 10 16 0.00 0.00
4:52 am 04:52 Clear 63 17.2 59 15 87 87 Calm 30.01 1016 10 16 0.00 0.00
5:52 am 05:52 Clear 64 17.8 57 13.9 78 78 W 5 7 30.03 1017 10 16 0.00 0.00
6:52 am 06:52 Sunny 64 17.8 59 15 84 84 NNW 3 6 30.05 1018 10 16 0.00 0.00
7:52 am 07:52 Sunny 68 20 60 15.6 76 76 NNW 5 7 30.06 1018 10 16 0.00 0.00
8:52 am 08:52 Sunny 71 21.7 60 15.6 68 68 NW 7 11 30.07 1018 10 16 0.00 0.00
9:52 am 09:52 Sunny 75 23.9 61 16.1 62 62 N 6 9 30.06 1018 10 16 0.00 0.00
10:52 am 10:52 Sunny 79 26.1 61 16.1 54 54 NW 8 13 30.06 1018 10 16 0.00 0.00
11:52 am 11:52 Mostly Sunny 81 27.2 60 15.6 49 49 WNW 10 17 30.06 1018 10 16 0.00 0.00
12:52 pm 12:52 Mostly Sunny 83 28.3 59 15 44 44 NNW 13 20 30.04 1017 10 16 0.00 0.00
1:52 pm 13:52 Mostly Sunny 84 28.9 59 15 43 43 NW 12 19 30.03 1017 10 16 0.00 0.00
2:52 pm 14:52 Mostly Sunny 85 29.4 59 15 42 42 NNW 10 17 30.01 1016 10 16 0.00 0.00
3:52 pm 15:52 Mostly Sunny 85 29.4 61 16.1 45 45 NW 9 15 30.00 1016 10 16 0.00 0.00
4:52 pm 16:52 Mostly Sunny 86 30 59 15 40 40 NNW 8 13 29.99 1016 10 16 0.00 0.00
5:52 pm 17:52 Mostly Sunny 85 29.4 58 14.4 40 40 NNW 8 13 29.98 1015 10 16 0.00 0.00
6:52 pm 18:52 Mostly Sunny 85 29.4 60 15.6 43 43 N 7 11 29.97 1015 10 16 0.00 0.00
7:52 pm 19:52 Sunny 83 28.3 62 16.7 49 49 N 3 6 29.97 1015 10 16 0.00 0.00
8:52 pm 20:52 Sunny 79 26.1 65 18.3 62 62 Calm 29.98 1015 10 16 0.00 0.00
9:52 pm 21:52 Clear 73 22.8 61 16.1 66 66 Calm 29.99 1016 10 16 0.00 0.00
10:52 pm 22:52 Clear 71 21.7 64 17.8 79 79 Calm 30.01 1016 10 16 0.00 0.00
11:52 pm 23:52 Clear 71 21.7 61 16.1 71 71 SE 3 6 30.01 1016 10 16 0.00 0.00

Powered by AerisWeather